TimeMST,TemperatureF,Dew PointF,Humidity,Sea Level PressureIn,VisibilityMPH,Wind Direction,Wind SpeedMPH,Gust SpeedMPH,PrecipitationIn,Events,Conditions,WindDirDegrees,DateUTC
12:53 AM,42.1,26.1,53,29.59,10.0,South,21.9,29.9,N/A,,Mostly Cloudy,190,2013-01-10 07:53:00
1:53 AM,39.9,28.0,63,29.62,10.0,South,11.5,-,0.00,Rain,Light Rain,190,2013-01-10 08:53:00
2:53 AM,37.9,30.9,76,29.58,10.0,South,9.2,-,0.00,,Mostly Cloudy,190,2013-01-10 09:53:00
3:53 AM,37.9,30.0,73,29.54,10.0,SW,5.8,-,N/A,,Clear,220,2013-01-10 10:53:00
4:53 AM,36.0,28.9,76,29.53,5.0,Variable,3.5,-,0.02,Rain,Light Freezing Rain,0,2013-01-10 11:53:00
5:01 AM,35.6,30.2,81,29.57,9.0,WSW,10.4,-,0.00,Rain,Light Freezing Rain,240,2013-01-10 12:01:00
5:07 AM,35.6,28.4,75,29.57,9.0,West,13.8,17.3,0.00,,Overcast,270,2013-01-10 12:07:00
5:17 AM,33.8,28.4,81,29.57,2.5,West,15.0,-,0.00,Snow,Light Snow,270,2013-01-10 12:17:00
5:22 AM,32.0,28.4,87,29.57,1.8,West,17.3,-,0.00,Snow,Light Snow,270,2013-01-10 12:22:00
5:29 AM,30.2,26.6,86,29.57,1.2,WSW,18.4,-,0.00,Snow,Light Snow,250,2013-01-10 12:29:00
5:43 AM,30.2,26.6,86,29.56,1.8,West,16.1,-,0.01,Snow,Light Snow,260,2013-01-10 12:43:00
5:48 AM,30.2,26.6,86,29.58,3.0,WSW,17.3,23.0,0.01,Snow,Light Snow,250,2013-01-10 12:48:00
5:53 AM,30.0,25.0,82,29.58,3.0,WSW,21.9,25.3,0.01,Snow,Light Snow,250,2013-01-10 12:53:00
6:04 AM,28.4,24.8,86,29.57,2.5,West,23.0,27.6,0.00,Snow,Light Snow,260,2013-01-10 13:04:00
6:19 AM,28.4,24.8,86,29.59,1.5,WSW,18.4,-,0.00,Snow,Light Snow,250,2013-01-10 13:19:00
6:22 AM,28.4,24.8,86,29.59,0.8,WSW,15.0,24.2,0.00,Snow,Light Snow,250,2013-01-10 13:22:00
6:53 AM,28.0,24.1,85,29.63,0.5,WSW,20.7,-,0.01,Fog-Snow,Snow,240,2013-01-10 13:53:00
7:07 AM,28.4,23.0,80,29.63,1.0,WSW,17.3,-,0.00,Snow,Light Snow,240,2013-01-10 14:07:00
7:29 AM,28.4,23.0,80,29.64,2.5,WSW,20.7,-,0.00,Snow,Light Snow,240,2013-01-10 14:29:00
7:53 AM,28.0,23.0,81,29.65,2.5,WSW,20.7,28.8,0.00,Snow,Light Snow,250,2013-01-10 14:53:00
8:04 AM,26.6,21.2,80,29.65,4.0,WSW,19.6,28.8,0.00,,Haze,250,2013-01-10 15:04:00
8:13 AM,26.6,21.2,80,29.65,3.0,WSW,19.6,26.5,0.00,Snow,Light Snow,240,2013-01-10 15:13:00
8:46 AM,26.6,21.2,80,29.66,4.0,WSW,23.0,29.9,0.00,Snow,Light Snow,240,2013-01-10 15:46:00
8:53 AM,27.0,21.9,81,29.68,3.0,WSW,24.2,31.1,0.00,,Haze,240,2013-01-10 15:53:00
9:04 AM,26.6,21.2,80,29.66,2.0,WSW,24.2,39.1,0.00,Snow,Light Snow,250,2013-01-10 16:04:00
9:19 AM,26.6,21.2,80,29.68,4.0,WSW,23.0,33.4,0.00,,Haze,240,2013-01-10 16:19:00
9:34 AM,28.4,21.2,74,29.70,5.0,WSW,21.9,28.8,0.00,Snow,Light Snow,250,2013-01-10 16:34:00
9:53 AM,28.0,19.9,72,29.68,10.0,WSW,23.0,28.8,0.00,,Overcast,250,2013-01-10 16:53:00
10:53 AM,28.0,19.9,72,29.69,7.0,WSW,20.7,-,N/A,,Overcast,240,2013-01-10 17:53:00
11:05 AM,28.4,19.4,69,29.70,4.0,West,21.9,33.4,N/A,,Haze,260,2013-01-10 18:05:00
11:51 AM,28.4,19.4,69,29.70,10.0,West,25.3,33.4,N/A,,Mostly Cloudy,260,2013-01-10 18:51:00
11:53 AM,28.0,19.0,69,29.69,10.0,WSW,28.8,34.5,N/A,,Mostly Cloudy,250,2013-01-10 18:53:00
12:07 PM,26.6,19.4,74,29.69,10.0,West,24.2,38.0,N/A,,Mostly Cloudy,260,2013-01-10 19:07:00
12:30 PM,26.6,19.4,74,29.68,10.0,West,27.6,35.7,N/A,,Mostly Cloudy,260,2013-01-10 19:30:00
12:53 PM,27.0,19.0,72,29.67,10.0,West,25.3,33.4,N/A,,Mostly Cloudy,260,2013-01-10 19:53:00
1:46 PM,26.6,19.4,74,29.68,4.0,WSW,24.2,34.5,0.00,Snow,Light Snow,250,2013-01-10 20:46:00
1:53 PM,27.0,19.0,72,29.68,3.0,WSW,27.6,33.4,0.00,Snow,Light Snow,250,2013-01-10 20:53:00
2:53 PM,27.0,18.0,69,29.70,10.0,WSW,27.6,32.2,0.00,,Mostly Cloudy,250,2013-01-10 21:53:00
3:39 PM,26.6,17.6,69,29.70,8.0,WSW,26.5,33.4,N/A,,Mostly Cloudy,240,2013-01-10 22:39:00
3:53 PM,27.0,17.1,66,29.70,10.0,WSW,24.2,32.2,N/A,,Mostly Cloudy,250,2013-01-10 22:53:00
4:29 PM,26.6,15.8,64,29.69,10.0,WSW,20.7,27.6,N/A,,Overcast,250,2013-01-10 23:29:00
4:53 PM,26.1,16.0,66,29.72,10.0,WSW,20.7,28.8,N/A,,Overcast,250,2013-01-10 23:53:00
5:12 PM,26.6,15.8,64,29.70,10.0,WSW,18.4,-,N/A,,Overcast,240,2013-01-11 00:12:00
5:41 PM,26.6,15.8,64,29.70,10.0,WSW,15.0,-,N/A,,Overcast,240,2013-01-11 00:41:00
5:53 PM,26.1,16.0,66,29.73,10.0,WSW,17.3,-,N/A,,Overcast,250,2013-01-11 00:53:00
6:51 PM,24.8,17.6,74,29.68,9.0,WSW,19.6,26.5,0.00,,Overcast,250,2013-01-11 01:51:00
6:53 PM,24.1,17.1,75,29.72,10.0,WSW,18.4,26.5,0.00,,Overcast,250,2013-01-11 01:53:00
7:46 PM,24.8,17.6,74,29.70,10.0,WSW,16.1,24.2,0.00,Snow,Light Snow,240,2013-01-11 02:46:00
7:53 PM,25.0,17.1,72,29.73,9.0,WSW,18.4,25.3,0.00,Snow,Light Snow,240,2013-01-11 02:53:00
8:22 PM,24.8,17.6,74,29.68,8.0,SW,16.1,-,0.00,Snow,Light Snow,230,2013-01-11 03:22:00
8:53 PM,24.1,15.1,69,29.71,10.0,WSW,17.3,26.5,0.00,,Mostly Cloudy,240,2013-01-11 03:53:00
9:53 PM,24.1,15.1,69,29.71,10.0,SW,20.7,27.6,N/A,,Overcast,230,2013-01-11 04:53:00
10:53 PM,24.1,16.0,71,29.71,8.0,WSW,19.6,28.8,0.00,Snow,Light Snow,240,2013-01-11 05:53:00
11:53 PM,24.1,17.1,75,29.70,2.5,SW,23.0,-,0.00,Snow,Light Snow,230,2013-01-11 06:53:00